Location: Newark
(10.3333°N, 37.7167°E)
Time: 00:26:24
(UTC+00:00)

LightSail 2 - Visible Passes

Search period start: 17 January 2021 00:00
Search period end: 27 January 2021 00:00
Orbit: 684 x 714 km, 24.0° (Epoch: 16 January)

Date Brightness Start Highest point End Pass type
(mag) Time Alt. Az. Time Alt. Az. Time Alt. Az.
17 Jan 6.9 02:42:32 10° SSW 02:46:49 28° SSE 02:51:07 10° E visible
18 Jan 7.3 01:42:42 16° S 01:44:22 19° SSE 01:47:49 10° ESE visible
18 Jan 5.4 03:24:27 10° WSW 03:29:27 71° SSE 03:34:28 10° ENE visible
19 Jan 6.0 02:23:43 19° SW 02:26:59 46° SSE 02:31:47 10° E visible
20 Jan 7.0 01:25:56 25° SE 01:25:56 25° SE 01:28:52 10° E visible
20 Jan 5.0 03:04:39 10° WSW 03:09:38 73° NNW 03:14:39 10° ENE visible
21 Jan 5.0 02:06:43 70° SSW 02:07:08 75° SSE 02:12:07 10° ENE visible
22 Jan 7.8 01:08:42 14° E 01:08:42 14° E 01:09:26 10° E visible
22 Jan 5.4 02:47:24 26° W 02:49:49 48° NNW 02:54:39 10° NE visible
23 Jan 6.2 01:49:13 36° NE 01:49:13 36° NE 01:52:13 10° ENE visible
24 Jan 5.8 02:29:38 33° NNW 02:30:01 33° NNW 02:34:31 10° NE visible
25 Jan 7.5 01:31:15 15° NE 01:31:15 15° NE 01:32:09 10° NE visible
25 Jan 6.6 03:09:56 12° NW 03:13:00 20° N 03:16:42 10° NE visible
26 Jan 6.6 02:11:27 23° N 02:11:27 23° N 02:14:20 10° NE visible
